Regional Weather Roundup
Issued by NWS Wakefield, VA

Home | Current Version | Previous Version | Graphics & Text | Print | Product List | Glossary On
Versions: 1 2 3 4 5 6 7 8 9 10 11 12 13 14 15 16 17 18 19 20 21 22 23 24 25 26 27 28 29 30 31 32 33 34 35 36 37 38 39 40 41 42 43 44 45 46 47 48 49 50
000
ASUS41 KAKQ 261010
RWRAKQ

REGIONAL WEATHER ROUNDUP
NATIONAL WEATHER SERVICE WAKEFIELD VA
600 AM EDT TUE AUG 26 2014

Note: "fair" indicates few or no clouds below 12,000 feet with no
significant weather and/or obstructions to visibility. * = Denotes
station may not report precipitation (e.g., rain,snow,etc.),
thunder or fog.

VAZ042-051-052>054-056-261100-
NORTHERN VIRGINIA

CITY           SKY/WX    TMP DP  RH WIND       PRES   REMARKS
WASH NATIONAL  PTCLDY    68  58  70 CALM      30.15S
DULLES         CLEAR     59  57  93 NW3       30.16R
FORT BELVOIR   CLEAR     59  57  94 E1        30.16R
QUANTICO       CLEAR     62  58  86 NW6       30.16R
FREDERICKSBRG* CLEAR     60  60 100 CALM      30.15R
STAFFORD*      CLEAR     56  56 100 CALM      30.19R
WARRENTON      FOG       52  52 100 CALM      30.16R VSB 3/4
CULPEPER*      CLEAR    N/A N/A N/A CALM      30.17R
MANASSAS*      CLEAR     55  55 100 CALM      30.16R
LEESBURG*      CLEAR     57  57 100 CALM      30.18R
WINCHESTER     CLEAR     55  54  94 CALM      30.18S
$$

VAZ048-049-060>072-079>083-261100-
CENTRAL AND SOUTH CENTRAL VIRGINIA...AND NORTH CENTRAL NORTH CAROLINA

CITY           SKY/WX    TMP DP  RH WIND       PRES   REMARKS
RICHMOND       PTCLDY    61  58  90 N5        30.14R
CHESTERFIELD*  SUNNY    N/A N/A N/A CALM      30.15R
HANOVER        CLEAR     57  56  96 CALM      30.16R
TAPPAHANNOCK*  CLEAR     56  54  92 CALM      30.15R
CHARLOTTSVILLE CLEAR     57  55  93 CALM      30.17R
ORANGE*        CLEAR     55  55 100 CALM      30.18R
LOUISA*        CLEAR     61  57  88 N6        30.15R
FARMVILLE*     FOG       55  54  94 CALM      30.14R VSB 3/4
SOUTH HILL*    CLEAR     57  57 100 N6        30.18R
ROANOKE RAPIDS SUNNY     55  55 100 CALM      30.11R FOG
RALEIGH        PTCLDY    60  58  92 CALM      30.13R
$$

VAZ088>098-261100-
SOUTHEAST VIRGINIA

CITY           SKY/WX    TMP DP  RH WIND       PRES   REMARKS
NORFOLK        MOCLDY    73  64  73 NE10      30.09R
VIRGINIA BEACH PTCLDY    71  64  78 NE8       30.08S
NORFOLK NAVAL  MOCLDY    73  66  78 NE9       30.11R
WEST POINT*    CLEAR     59  57  92 CALM      30.15R
NEWPORT NEWS   MOCLDY    67  62  84 N3        30.11S
LANGLEY AFB    MOCLDY    70  70 100 NE8       30.10R
FORT EUSTIS    CLEAR     66 N/A N/A N3        30.10R
WILLIAMSBURG*  CLEAR     63  63 100 CALM      30.13R
FRANKLIN*      CLEAR     57  57 100 CALM      30.11R
WAKEFIELD      MOCLDY    62  60  93 CALM      30.12S
$$

VAZ020-022-025-037-045-261100-
WESTERN AND SOUTHWEST VIRGINIA

CITY           SKY/WX    TMP DP  RH WIND       PRES   REMARKS
STAUNTON*      FOG       51  50  95 CALM      30.22S VSB 1/4
HOT SPRINGS VA CLEAR    N/A N/A N/A E3        30.27F
LYNCHBURG      CLEAR     58  57  97 N5        30.19R
DANVILLE       CLEAR     57  54  89 N3        30.16R FOG
MARTINSVILLE   CLEAR     54  54 100 CALM      30.20R
ROANOKE        CLEAR     56  54  93 CALM      30.21R
BLACKSBURG     FOG       52  52 100 CALM      30.23S VSB 3/4
DUBLIN*        FOG       55  55 100 CALM      30.23R VSB 1/4
MARION*        FOG      N/A N/A N/A CALM      30.24R VSB 1/2
HILLSVILLE*    CLEAR     55  54  97 CALM      30.23R
RICHLANDS*     SUNNY     63  55  76 SE7       30.19S
WISE*          CLEAR     61  52  72 SE6       30.21R
ABINGDON*      CLEAR     59  56  91 E3        30.18S
$$

MDZ021>025-VAZ099-100-261100-
SOUTHERN MARYLAND AND THE DELMARVA PENINSULA

CITY           SKY/WX    TMP DP  RH WIND       PRES   REMARKS
PATUXENT RIVER PTCLDY    61  60  97 W5        30.13R
BAY BRIDGE APT   N/A     70  64  83 N3        30.14R
LEONARDTOWN    CLEAR     57  55  94 CALM      30.15R
DOVER          CLEAR     62  60  95 N7        30.12R
GEORGETOWN     CLEAR     59  57  93 VRB3      30.14R
EASTON         CLEAR     63  63 100 CALM      30.18R
CAMBRIDGE      PTCLDY    59  55  88 CALM      30.13R
SALISBURY      CLEAR     60  56  86 CALM      30.13R
OCEAN CITY     CLEAR     55  54  96 CALM      30.12S
WALLOPS ISLAND CLEAR     63  58  83 NW6       30.13R
ACCOMACK*      NOT AVBL
$$

NCZ012>017-030>032-261100-
EASTERN NORTH CAROLINA

CITY           SKY/WX    TMP DP  RH WIND       PRES   REMARKS
ELIZABETH CITY CLEAR     68  65  90 N7        30.08R
AHOSKIE*       CLEAR     58  56  95 CALM      30.11R
EDENTON*       CLEAR     63  62  97 N6        30.08R
CURRITUCK*     CLEAR     72  61  67 NE5       30.09R
KILL DEVIL HLS CLEAR     73  64  73 NE9       30.05S
MANTEO         CLEAR     72  65  79 NE13      30.06S
CAPE HATTERAS  MOCLDY    72  69  90 NE9       30.03S
GOLDSBORO      CLEAR     63  62  98 N2        30.07S
WASHINGTON     CLEAR     61  60  96 N5        30.08S
GREENVILLE     CLEAR     61  61 100 CALM      30.10S
NEW BERN       CLEAR     66  63  90 N5        30.07S
WILMINGTON     CLEAR     65  63  93 NE8       30.05S
$$

VAZ048-261100-
ELSEWHERE

CITY           SKY/WX    TMP DP  RH WIND       PRES   REMARKS
HARRISBURG PA  CLEAR     62  59  90 CALM      30.16R
BALTIMORE      PTCLDY    61  59  93 CALM      30.14S
ANNAPOLIS      CLEAR     69  61  75 NW7       30.14R
ANDREWS AFB    CLEAR     61  59  93 CALM      30.15R
WILMINGTON DE  CLEAR     67  58  72 N3        30.15R
PHILADELPHIA   PTCLDY    69  60  73 CALM      30.14R
WILDWOOD NJ*   CLEAR     61  55  82 CALM      30.14R
ATLANTIC CITY  CLEAR     61  59  93 NW3       30.14R
HENDERSON NC   CLEAR     59  57  95 N5        30.14R FOG
GREENSBORO     CLEAR     60  58  92 N5        30.15R
ROCKY MOUNT    CLEAR     60  58  92 N3        30.10S
FAYETTEVILLE   CLEAR     64  61  90 N7        30.09R
CHARLOTTE      CLEAR     60  57  89 N7        30.13S
$$

VAZ100-261100-
MARINE

STATION/POSITION TIME  TEMP    WIND        PRES    WAVE   SWELL
                       AIR SEA DIR/SP/G            HT/PER HT/PER
                 (UTC) (F)     (DEG/KT/KT) (MB)    (FT/S) (FT/S)
44066 TX TWR #4  1000   71 71   70/  4/  6 1020.4R   4/ 9   3/ 9
CAPE MAY NJ      1000   66 78   60/  2/  2 1019.6R
LEWES DE         1000   65 75  250/  3/  3 1019.7R
15NM E FENWICK I 1000   72 73              1019.7S   5/ 9
OCEAN-CITY-INLET 1000   67 74   10/  3/  3 1019.5S
WACHAPREAGUE VA  1000   65 74  360/  3/  5 1019.7R
THOMAS POINT MD  1000   70 77  350/  7/  8 1021.1R
GOOSES REEF MD   1000   74     350/  8/ 10 1020.8R
COVE POINT MD    1000   70     330/  3/  4 1020.2S
SOLOMONS ISLAND  1000      79                N/A
BISHOPS HEAD MD  1000   70 75   10/  2/  3 1019.8R
PINEY POINT MD   1000           40/  5/  5   N/A
POTOMAC MD       1000   72      20/  6/  8 1019.5R
CAMBRIDGE MD     1000   65 77  190/  2/  2 1020.1R
LEWISETTA VA     1000   72 76   30/  5/  7 1019.9R
RAPPAHANNOCK LGT 1000           40/ 11/ 12 1020.3R
STINGRAY PT      1000   74      60/ 10/ 14   N/A
YORK RVR RNG VA  1000   73      60/ 10/ 11 1019.1R
YORKTOWN VA      1000   69 78   20/  7/  8 1019.3R
JAMESTOWN VA     1000   66      40/  6/  8   N/A
DOMINION TERM VA 1000   70      CALM  /  4 1019.3R
KIPTOPEKE VA     1000      79   30/  6/  8   N/A
CHES BAY BRIDGE  1000   74 77   40/ 14/ 16 1018.5S
CAPE HENRY VA    1000   74      50/ 13/ 16 1017.8R
CHESAPEAKE LGHT  0900   74      70/ 16/ 18 1019.1R
WILLOUBY STN VA  1000   73      50/ 11/ 12 1018.0R
S CRANEY ISL VA  1000           10/  6/  7 1018.8R
CAPE HENRY BUOY  1000      76                N/A     5/ 7
1ST LANDING BUOY 1000   74      60/ 14/ 16 1018.6R
CAPE CHARLES BUO 1000      76                N/A     5/ 8   3/ 8
OFFSHORE WE BUOY 0900      75                N/A     6/ 9   5/ 9
64NM E OF VA BCH 1000   75 78   50/ 14/ 17 1017.7R   6/ 8   5/ 8
DUCK PIER NC     1000   74 76   50/ 16/ 19 1017.4R
44056 DUCK FRF   1000                        N/A     5/ 7
OREGON INLET NC  1000   74 77   40/ 13/ 18 1017.4R
HATTERAS NC      1000   75 77   40/ 10/ 15 1017.1F
DIAMOND SHLS NC  1000   76      20/ 21/ 25 1015.4S   8/11   5/11
CAPE LOOKOUT NC  0900   73      10/ 12/ 15 1016.3F
$$


USA.gov is the U.S. government's official web portal to all federal, state and local government web resources and services.